Location: Eaton Estates
(41.3089°N, 82.0057°W)
Time: 04:32:51
(UTC+00:00)

DELTA 2 R/B (1) - Visible Passes

Search period start: 17 October 2021 00:00
Search period end: 27 October 2021 00:00
Orbit: 790 x 802 km, 39.6° (Epoch: 16 October)

Date Brightness Start Highest point End Pass type
(mag) Time Alt. Az. Time Alt. Az. Time Alt. Az.
17 Oct 5.3 08:37:14 27° ESE 08:37:14 27° ESE 08:39:41 10° ESE visible
17 Oct 4.4 10:18:01 25° WSW 10:20:12 34° SSW 10:25:09 10° SE visible
18 Oct 6.2 08:08:13 13° ESE 08:08:13 13° ESE 08:08:44 10° ESE visible
18 Oct 4.2 09:49:00 36° SSW 09:49:17 36° SSW 09:54:19 10° SE visible
19 Oct 4.7 09:20:03 31° SSE 09:20:03 31° SSE 09:23:28 10° SE visible
19 Oct 5.5 11:01:51 10° WSW 11:03:52 12° SW 11:05:54 10° SSW visible
20 Oct 5.6 08:51:10 18° SE 08:51:10 18° SE 08:52:36 10° SE visible
20 Oct 5.4 10:31:57 13° SW 10:33:00 13° SW 10:35:33 10° S visible
21 Oct 5.5 10:03:08 14° SSW 10:03:08 14° SSW 10:05:05 10° S visible
22 Oct 5.9 09:34:22 10° S 09:34:22 10° S 09:34:32 10° S visible
25 Oct 5.6 00:50:27 10° SSW 00:51:54 15° S 00:51:54 15° S visible
26 Oct 5.2 00:19:46 10° S 00:22:59 19° SSE 00:22:59 19° SSE visible
26 Oct 5.2 23:49:06 10° S 23:52:45 18° SE 23:53:59 17° SE visible
